User: anonymous   Login
Location: Unspecified
(0.0000°N, 0.0000°E)
Time: 17:11:24
(UTC+00:00)
Language:

RAX-2 - Orbit

View from above orbital plane
View from above orbital plane
View from above satellite
View from above satellite

Ground track
Ground track

The orbit data is extracted from the following two-line orbital elements,

1 37853U 11061D   14295.25029541  .00011968  00000-0  79209-3 0  9427
2 37853 101.7044 025.5883 0210846 048.7254 017.0349 14.91185829161580
Epoch (UTC): 22 October 2014 06:00:25
Eccentricity: 0.0210846
inclination: 101.7044°
perigee height: 447 km
apogee height: 741 km
right ascension of ascending node: 25.5883°
argument of perigee: 48.7254°
revolutions per day: 14.91185829
mean anomaly at epoch: 17.0349°
orbit number at epoch: 16158

The dashed part of the orbit path shows where the satellite is in the earth's shadow,  

DLR